Showing default

SECOR 7 (EGRS 7), 2411

Orbit data source: Space-Track

SECOR 7 (EGRS 7), 2411 is an American payload satellite in LEO that was launched on Fri, 19 Aug 1966 UTC via an ATLAS SLV-3 AGENA D launch vehicle from the Air Force Western Test Range (AFWTR). Payload-class satellites include a variety of spacecraft equipped with specific instruments for various scientific and technological missions. These include communications satellites like Starlink; space stations such as the ISS; scientific satellites like the Hubble; Earth observation satellites from companies like Planet Labs, Umbra, and HawkEye 360; GPS; miniature CubeSats for education and research; and military/defense satellites.

Loading next visibility...
Identifier
2411, 1966-077B
Orbit
LEO
Country
Flag of USUS
Related business
Manufacturer
ITT
Mission
Spacecraft
Bus & Motor
SECOR, Unknown motor
Mass
18 kg wet, 18 kg dry
Launch date (UTC)
1966-08-19 (59 years ago)
Launch vehicle
ATLAS SLV-3 AGENA D
Launch site
Air Force Western Test Range (AFWTR)
Object type
Payload
Rocket body
Debris
Shape & HBR
Unknown
Radar Cross Section
Medium (>0.1 m² and <1 m²)

Expand to show TLE details & history
Last TLE update: 22 hours ago

TLE from 22 hours ago
0 SECOR 7 (EGRS 7)
1 02411U 66077B   25298.84906723 -.00000011  00000-0 -63747-2 0  9992
2 02411  90.3287 274.7029 0011730 295.2620  64.7016  8.59615567857240
Epoch: 2025-10-25T20:22Z
TLE epoch observation values (Epoch: 2025-10-25T20:22:39.408Z)
Latitude
Longitude
-65.43502°
Altitude
3,685.217 km
Speed
6.296 km/s
True Right ascension
18h 18m 48s
True Declination
0° 00' 00"
Sunlit
Object was in daylight at epoch
Visualization orbit readout
Latitude
Unknown
Longitude
Unknown
Altitude
Unknown
Speed
Unknown
Apparent Right ascension
Unknown
Apparent Declination
Unknown
Sunlit
N/A
Visualization observer readout
Local Sidereal Time
13:23:32
Azimuth
Unknown
Elevation
Unknown
Doppler factor
Unknown
Orbital elements
Apogee altitude
3,697.69 km
Perigee altitude
3,674.079 km
Semi-major axis
10,064.022 km
Eccentricity
0.00117
Inclination
90.3287°
RAAN
274.7029°
Arg. of periapsis
295.262°
True anomaly
64.8232°
Mean anomaly
64.7016°
Eccentric anomaly
64.76239°
Mean motion
2.14974 °/min
Orbital period
167.46 mins
BSTAR
-0.0063747
Loading maneuver chart data...
Computing Atmospheric mass density...
Loading historical data...
Loading historical data...
Loading historical data...
Loading historical data...
Loading historical data...
Loading historical data...
Loading historical data...

Documentation

Showing up to 5 results
|